Total_Precipitation_Accumulation
2.37 1.98 3.28 3.42 3.11 2.77 2.56 2.58 2.72 2.70 2.76 2.70 2.58 2.36 2.16 2.08 2.10 2.12 1.97 1.74 1.66 1.71 1.94 2.08 1.96 1.97 1.79 1.73 1.81 1.92 2.00 2.00 2.08 1.85 1.64 1.58 1.49 1.58 1.73 1.87 2.17 2.48 2.03
1.68 1.68 2.91 3.29 3.18 2.94 2.80 2.74 2.73 2.74 2.75 2.63 2.45 2.34 2.08 1.88 1.95 2.19 1.97 1.87 1.74 1.65 1.78 1.97 2.01 2.06 1.97 1.94 2.03 2.07 2.09 2.00 2.04 1.95 1.92 1.92 1.71 1.65 1.56 1.69 2.15 2.43 1.86
1.47 1.59 2.34 3.21 3.14 2.86 2.82 2.77 2.64 2.64 2.64 2.44 2.25 2.09 2.00 1.81 1.88 2.12 1.97 1.95 1.83 1.67 1.77 1.96 2.13 2.19 2.19 2.19 2.23 2.16 2.12 2.13 2.06 1.96 2.34 2.81 2.21 1.83 1.76 1.74 1.81 1.87 1.81
1.23 1.36 1.89 2.71 2.64 2.56 2.55 2.41 2.33 2.26 2.19 2.22 2.17 1.95 1.87 1.82 1.99 2.18 2.03 1.91 1.78 1.65 1.70 1.88 2.06 2.04 2.10 2.21 2.14 2.12 2.04 2.08 2.16 2.01 2.30 2.72 2.60 2.18 2.06 1.99 1.83 1.83 1.97
1.04 1.28 1.94 2.55 2.47 2.45 2.38 2.13 2.13 2.01 1.92 1.95 2.01 1.89 1.91 1.82 1.85 2.01 2.04 1.92 1.84 1.76 1.74 1.85 1.92 1.91 2.05 2.13 2.06 2.06 2.07 2.20 2.20 1.88 1.90 2.30 2.88 2.59 2.15 2.06 1.94 1.96 2.04
1.11 1.20 1.65 2.17 2.16 2.13 2.07 2.07 2.01 1.89 1.90 1.85 1.81 1.81 1.86 1.83 1.77 1.81 1.96 1.89 1.85 2.00 2.07 2.03 2.01 2.09 2.11 2.16 2.09 2.11 2.19 2.14 1.95 1.96 2.07 2.35 2.74 2.55 2.02 1.82 1.94 2.05 2.11
1.00 1.02 1.32 1.88 1.86 1.81 1.84 1.94 2.00 1.93 1.91 1.81 1.76 1.85 1.93 1.84 1.77 1.77 1.91 1.94 1.90 1.98 2.16 2.09 2.01 2.04 2.03 2.08 2.06 2.01 2.10 2.04 1.90 2.04 2.18 2.44 2.43 2.33 1.99 1.80 1.95 2.03 2.10
1.10 1.02 1.15 1.73 1.85 1.74 1.78 1.81 1.89 1.96 1.91 1.78 1.74 1.73 1.78 1.78 1.70 1.71 1.77 1.90 1.87 1.91 2.06 2.05 1.94 1.92 1.77 1.77 1.81 1.82 1.92 1.78 1.56 1.72 1.99 2.38 2.54 2.39 1.93 1.71 1.70 1.87 2.00
1.37 1.31 1.35 1.52 1.63 1.75 1.81 1.80 1.97 2.10 1.98 1.75 1.61 1.58 1.54 1.60 1.58 1.55 1.60 1.76 1.78 1.84 1.93 1.94 1.93 1.94 1.80 1.73 1.75 1.79 1.85 1.65 1.44 1.69 1.66 2.19 2.64 2.46 2.01 1.72 1.61 1.78 1.89
1.32 1.28 1.33 1.44 1.48 1.52 1.63 1.88 2.10 2.42 2.30 1.87 1.58 1.42 1.44 1.40 1.41 1.51 1.49 1.63 1.74 1.87 2.08 2.09 2.09 1.98 1.97 1.84 1.79 1.82 1.72 1.39 1.38 1.41 1.66 2.05 2.74 2.55 2.08 1.76 1.60 1.57 1.62
1.01 1.06 1.17 1.24 1.27 1.37 1.37 1.59 2.03 2.44 2.45 2.02 1.66 1.54 1.34 1.04 1.04 1.28 1.47 1.73 1.86 2.02 2.36 2.42 2.29 2.10 1.95 1.83 1.79 1.74 1.41 1.14 1.37 1.46 1.77 2.30 2.69 2.58 2.11 1.80 1.61 1.56 1.45
0.82 0.78 0.80 0.83 0.94 1.04 1.06 1.36 1.65 1.69 1.89 1.64 1.56 1.44 1.32 1.27 1.22 1.06 1.22 1.67 1.93 1.99 2.25 2.40 2.32 1.95 1.56 1.40 1.49 1.50 1.19 1.11 1.24 1.37 1.76 2.49 2.84 2.65 2.13 1.79 1.67 1.63 1.50
0.76 0.74 0.67 0.66 0.74 0.89 1.05 1.21 1.40 1.56 1.72 1.69 1.62 1.56 1.59 1.56 1.23 1.09 1.17 1.33 1.53 1.64 1.66 1.80 1.83 1.55 1.30 1.25 1.39 1.29 1.12 1.07 1.18 1.30 1.79 2.51 2.94 2.77 2.22 1.86 1.80 1.77 1.77
0.64 0.73 0.69 0.55 0.57 0.66 0.77 0.94 1.11 1.32 1.52 1.57 1.37 1.28 1.42 1.48 1.30 1.20 1.33 1.39 1.49 1.62 1.67 1.67 1.62 1.42 1.15 1.13 1.27 1.25 1.12 1.17 1.19 1.27 1.66 2.11 2.58 2.75 2.51 2.18 2.09 2.01 2.12
0.64 0.72 0.75 0.65 0.60 0.64 0.71 0.78 0.80 1.09 1.27 1.42 1.46 1.22 1.33 1.40 1.35 1.25 1.23 1.39 1.40 1.51 1.55 1.63 1.67 1.50 1.35 1.24 1.25 1.22 1.28 1.28 1.20 1.15 1.42 1.63 1.90 2.44 2.70 2.64 2.54 2.38 2.36
0.59 0.69 0.71 0.72 0.70 0.71 0.73 0.73 0.72 0.78 0.86 0.95 0.89 0.85 1.04 1.19 1.22 1.25 1.16 1.23 1.34 1.54 1.77 1.85 1.69 1.58 1.47 1.41 1.42 1.37 1.36 1.32 1.29 1.20 1.33 1.43 1.38 1.64 2.13 2.68 2.93 2.81 2.67
0.57 0.63 0.69 0.75 0.80 0.81 0.82 0.87 0.83 0.77 0.78 0.76 0.71 0.71 0.82 0.94 1.03 1.16 1.23 1.21 1.27 1.53 1.83 2.01 1.89 1.75 1.56 1.52 1.51 1.48 1.40 1.40 1.33 1.30 1.40 1.54 1.39 1.36 1.70 2.31 2.90 3.08 2.94
0.57 0.54 0.57 0.59 0.68 0.73 0.79 0.82 0.91 0.90 0.89 0.85 0.85 0.81 0.78 0.92 1.05 1.17 1.27 1.23 1.27 1.51 1.79 2.02 2.10 2.08 1.96 1.85 1.72 1.61 1.54 1.65 1.51 1.41 1.49 1.62 1.73 1.56 1.57 1.87 2.30 2.73 2.94
0.51 0.45 0.44 0.47 0.50 0.54 0.57 0.65 0.78 0.85 0.92 0.99 0.99 0.98 0.99 1.06 1.09 1.21 1.44 1.49 1.49 1.66 1.75 1.79 1.95 2.00 2.06 2.02 1.79 1.71 1.63 1.74 1.82 1.73 1.80 1.86 1.93 1.87 1.74 1.64 1.76 1.93 2.44
0.43 0.43 0.42 0.44 0.43 0.42 0.44 0.54 0.67 0.75 0.81 1.01 1.07 1.10 1.37 1.50 1.32 1.30 1.47 1.53 1.59 1.81 1.85 1.92 2.15 2.13 2.05 2.13 1.91 1.78 1.74 1.73 1.77 1.97 2.11 2.10 2.05 1.90 1.86 1.70 1.75 1.68 1.99
0.27 0.27 0.33 0.36 0.43 0.43 0.37 0.41 0.55 0.67 0.80 0.94 1.13 1.15 1.37 1.51 1.44 1.48 1.54 1.59 1.63 1.71 1.77 1.92 2.27 2.30 2.13 2.01 2.21 2.19 2.09 1.89 1.81 1.90 2.01 2.17 2.19 2.00 1.95 1.93 1.83 1.74 1.63
0.24 0.19 0.21 0.25 0.35 0.43 0.45 0.51 0.63 0.82 0.93 1.05 1.23 1.27 1.36 1.40 1.40 1.36 1.56 1.69 1.66 1.77 1.84 2.01 2.32 2.53 2.28 2.10 2.46 2.93 2.69 2.40 2.07 1.84 1.84 1.83 2.01 2.01 1.88 1.77 1.69 1.67 1.61
0.17 0.14 0.18 0.26 0.40 0.56 0.71 0.94 1.20 1.50 1.66 1.58 1.48 1.54 1.62 1.69 1.64 1.60 1.70 1.86 1.79 1.83 1.93 1.97 2.08 2.57 2.72 2.46 2.41 2.99 2.88 2.66 2.62 2.08 1.66 1.51 1.73 1.89 1.90 1.79 1.73 1.79 1.77
0.21 0.27 0.36 0.48 0.64 0.79 0.99 1.22 1.48 1.74 1.94 1.98 2.03 2.07 2.04 1.97 1.85 1.73 1.78 1.87 1.88 1.94 1.91 1.75 1.91 2.40 2.90 2.94 2.71 2.50 2.34 2.30 2.49 2.39 1.82 1.49 1.54 1.68 1.85 1.74 1.73 1.82 1.86
0.38 0.51 0.62 0.85 1.01 1.14 1.19 1.28 1.50 1.60 1.68 1.80 1.98 2.05 2.06 1.99 1.87 1.71 1.68 1.81 1.88 1.96 1.94 1.97 2.13 2.44 2.73 3.01 3.00 2.74 2.43 2.20 1.83 2.02 2.03 1.80 1.53 1.42 1.49 1.59 1.71 1.76 1.79
0.67 0.90 1.03 1.15 1.26 1.24 1.20 1.21 1.33 1.47 1.57 1.67 1.84 1.91 1.87 1.77 1.73 1.65 1.62 1.66 1.64 1.74 1.83 1.99 2.22 2.35 2.54 2.79 2.88 2.60 2.42 2.31 2.10 1.95 1.80 1.85 1.81 1.50 1.34 1.32 1.42 1.58 1.64